Location: Luz Observatory
(34.5000°N, 117.2833°W)
Time: 23:25:56
(UTC-07:00)

Okean 3 Rocket - Visible Passes

Search period start: 21 September 2017 00:00
Search period end: 01 October 2017 00:00
Orbit: 616 x 644 km, 82.5° (Epoch: 21 September)

Date Brightness Start Highest point End Pass type
(mag) Time Alt. Az. Time Alt. Az. Time Alt. Az.
21 Sep 6.2 21:35:20 10° NNW 21:36:03 14° NNW 21:36:03 14° NNW visible
22 Sep 5.9 20:19:11 10° NNE 20:19:39 12° NNE 20:19:39 12° NNE visible
22 Sep 6.6 21:56:40 10° NNW 21:57:03 12° NNW 21:57:03 12° NNW visible
23 Sep 5.5 20:39:14 10° N 20:40:40 19° NNE 20:40:40 19° NNE visible
24 Sep 5.3 20:59:52 10° N 21:01:46 25° N 21:01:46 25° N visible
25 Sep 5.6 19:44:32 10° NE 19:45:29 12° NE 19:45:29 12° NE visible
25 Sep 5.7 21:20:58 10° NNW 21:22:54 23° NW 21:22:54 23° NW visible
26 Sep 4.8 20:04:05 10° NNE 20:06:42 25° NE 20:06:42 25° NE visible
26 Sep 6.4 21:42:42 10° NW 21:44:06 15° WNW 21:44:06 15° WNW visible
27 Sep 3.9 20:24:29 10° N 20:27:58 49° NNE 20:27:58 49° NNE visible
28 Sep 4.2 20:45:23 10° NNW 20:49:22 55° WNW 20:49:22 55° WNW visible
29 Sep 4.8 19:29:04 10° NNE 19:32:26 21° ENE 19:33:28 19° E visible
29 Sep 5.5 21:06:47 10° NNW 21:10:27 26° W 21:10:55 25° W visible
30 Sep 3.8 19:49:12 10° N 19:53:27 44° E 19:55:12 29° SE visible
30 Sep 6.6 21:29:20 10° WNW 21:31:03 12° W 21:32:39 10° WSW visible
